Date,TemperatureHighF,TemperatureAvgF,TemperatureLowF,DewpointHighF,DewpointAvgF,DewpointLowF,HumidityHigh,HumidityAvg,HumidityLow,PressureMaxIn,PressureMinIn,WindSpeedMaxMPH,WindSpeedAvgMPH,GustSpeedMaxMPH,PrecipitationSumIn
2013-3-1,52,50,45,-100,-100,-100,0,0,100,0.00,40.00,23,11,34,0.00
2013-3-2,50,47,43,-100,-100,-100,0,0,100,0.00,40.00,18,8,23,0.00
2013-3-3,53,44,37,-100,-100,-100,0,0,100,0.00,40.00,20,8,27,0.00
2013-3-4,54,44,38,-100,-100,-100,0,0,100,0.00,40.00,30,13,35,0.00
2013-3-5,46,43,42,-100,-100,-100,0,0,100,0.00,40.00,18,8,21,0.00
2013-3-6,49,45,43,-100,-100,-100,0,0,100,0.00,40.00,28,14,35,0.00
2013-3-7,54,46,40,-100,-100,-100,0,0,100,0.00,40.00,14,6,17,0.00
2013-3-8,56,44,36,-100,-100,-100,0,0,100,0.00,40.00,16,7,20,0.00
2013-3-9,59,45,39,-100,-100,-100,0,0,100,0.00,40.00,18,6,20,0.00
2013-3-10,49,45,39,-100,-100,-100,0,0,100,0.00,40.00,9,4,10,0.00
2013-3-11,51,49,47,-100,-100,-100,0,0,100,0.00,40.00,7,2,9,0.00
2013-3-12,53,48,46,-100,-100,-100,0,0,100,0.00,40.00,18,7,21,0.00
2013-3-13,56,49,45,-100,-100,-100,0,0,100,0.00,40.00,14,4,18,0.00
2013-3-14,52,49,47,-100,-100,-100,0,0,100,0.00,40.00,26,15,34,0.00
2013-3-15,52,50,47,-100,-100,-100,0,0,100,0.00,40.00,21,9,26,0.00
2013-3-16,49,47,43,-100,-100,-100,0,0,100,0.00,40.00,31,14,35,0.00
2013-3-17,53,46,41,-100,-100,-100,0,0,100,0.00,40.00,16,8,27,0.00
2013-3-18,55,44,36,-100,-100,-100,0,0,100,0.00,40.00,21,8,24,0.00
2013-3-19,53,48,45,-100,-100,-100,0,0,100,0.00,40.00,38,13,48,0.00
2013-3-20,52,48,44,-100,-100,-100,0,0,100,0.00,40.00,50,28,70,0.00
2013-3-21,50,44,41,-100,-100,-100,0,0,100,0.00,40.00,25,12,34,0.00
2013-3-22,52,43,37,-100,-100,-100,0,0,100,0.00,40.00,20,7,32,0.00
2013-3-23,53,42,36,-100,-100,-100,0,0,100,0.00,40.00,18,8,21,0.00
2013-3-24,56,47,42,-100,-100,-100,0,0,100,0.00,40.00,13,8,16,0.00
2013-3-25,53,47,42,-100,-100,-100,0,0,100,0.00,40.00,13,6,16,0.00
2013-3-26,51,48,46,-100,-100,-100,0,0,100,0.00,40.00,14,4,17,0.00
2013-3-27,54,50,46,-100,-100,-100,0,0,100,0.00,40.00,12,7,14,0.00
2013-3-28,59,51,46,-100,-100,-100,0,0,100,0.00,40.00,11,4,14,0.00
2013-3-29,59,52,49,-100,-100,-100,0,0,100,0.00,40.00,24,8,28,0.00
2013-3-30,67,57,48,-100,-100,-100,0,0,100,0.00,40.00,37,11,45,0.00
2013-3-31,56,52,49,-100,-100,-100,0,0,100,0.00,40.00,33,13,44,0.00